Location: Newark
(50.4348°N, 30.5552°E)
Time: 06:46:24
(UTC+00:00)

Envisat - Pass Details

Date: 17 December 2019
Orbit: 764 x 766 km, 98.1° (Epoch: 27 January)

Event Time Altitude Azimuth Distance (km) Brightness Sun altitude
Rises 03:38:13 0° 25° (NNE) 3,246 6.4 -20.2°
Reaches altitude 10° 03:41:08 10° 42° (NE) 2,314 5.8 -19.7°
Maximum altitude 03:44:52 20° 90° (E) 1,712 5.7 -19.1°
Drops below altitude 10° 03:48:34 10° 137° (SE) 2,300 6.3 -18.6°
Sets 03:51:27 0° 154° (SSE) 3,220 6.9 -18.1°
